#timestamp,LO_Frequency,Hit,StdDev 
1512651615.6,286046997.6,N
1512651635.5,286046996.9,N
1512651655.3,286046999.5,N
1512651675.2,286046998.7,N
1512651695.9,286047002.6,N
1512651715.7,286047004.3,N
1512651735.6,286047004.1,N
1512651755.4,286047004.1,N
1512651775.2,286047002.6,N
1512651795.1,286046998.3,N
1512651796.0,286046998.3,N
1512651815.8,286047000.8,N
1512651835.7,286047003.1,N
1512651855.5,286047002.5,N
1512651875.3,286047001.1,N
1512651895.2,286046998.5,N
1512651915.0,286047000.4,N
1512651915.9,286047000.4,N
1512651935.8,286047002.5,N
1512651955.6,286047003.6,N
1512651975.4,286047002.7,N
1512651995.3,286047000.0,N
1512652015.1,286046998.1,N
1512652035.8,286047000.6,N
1512652055.7,286047002.2,N
1512652075.5,286047004.2,N
1512652095.4,286047002.9,N
1512652115.2,286047003.8,N
1512652135.0,286047005.5,N
1512652135.9,286047005.5,N
1512652155.8,286047007.4,Y
1512652175.6,286047005.3,P
1512652195.5,286047004.8,N
1512652215.3,286047005.7,P
1512652235.1,286047007.6,Y
1512652255.9,286047001.0,P
1512652275.7,286046997.2,N
1512652295.6,286046998.7,N
1512652315.4,286046998.7,N
1512652335.2,286046999.1,N
1512652355.1,286046999.4,N
1512652356.0,286046999.4,N
1512652375.8,286046997.5,N
1512652395.6,286046996.3,N
1512652415.5,286046994.1,N
1512652435.3,286046993.9,N
1512652455.2,286046995.6,N
1512652475.9,286046994.9,N
1512652495.7,286046996.7,N
1512652515.6,286046998.6,N
1512652535.4,286047000.7,N
1512652555.3,286046999.1,N
1512652575.1,286046999.3,N
1512652576.0,286046999.3,N
1512652595.8,286046996.8,N
1512652615.7,286046999.6,N
1512652635.5,286046998.8,N
1512652655.4,286046997.7,N
1512652675.2,286046995.1,N
1512652695.0,286046999.6,N
1512652695.9,286046999.6,N
1512652715.8,286046998.1,N
1512652735.6,286046998.6,N
1512652755.4,286046998.6,N
1512652775.3,286046999.4,N
1512652795.1,286047001.0,N
1512652815.9,286046997.2,N
1512652835.7,286046997.6,N
1512652855.5,286046995.8,N
1512652875.4,286046996.2,N
1512652895.2,286046994.6,N
1512652915.0,286046997.6,N
1512652916.0,286046997.6,N
1512652935.8,286046999.0,N
1512652955.6,286047001.1,N
1512652975.5,286047000.8,N
1512652995.3,286047000.2,N
1512653015.1,286047000.9,N
1512653035.9,286047001.0,N
1512653055.7,286046997.3,N
1512653075.6,286046998.0,N
1512653095.4,286046999.2,N
1512653115.2,286046998.2,N
1512653135.1,286046996.8,N
1512653136.0,286046996.8,N
1512653155.8,286046996.9,N
1512653175.7,286046998.6,N
1512653195.5,286047000.5,N
1512653215.3,286046997.7,N
1512653235.2,286046994.9,Y
1512653255.0,286046998.9,P
1512653255.9,286046998.9,P
1512653275.7,286046998.8,P
1512653295.6,286047000.8,Y
1512653315.4,286046999.9,P
1512653335.3,286047000.8,N
1512653355.1,286047001.8,N
1512653375.8,286047001.0,N
1512653395.7,286047000.8,N
1512653415.5,286047002.6,N
1512653435.4,286047004.2,Y
1512653455.2,286047001.8,P
1512653475.0,286047004.2,P
1512653475.9,286047004.2,N
1512653495.8,286047002.6,N
1512653515.6,286047002.0,N
1512653535.5,286046999.8,N
1512653555.3,286047002.8,N
1512653575.1,286047001.3,N
1512653595.9,286047001.3,N
1512653615.7,286047011.9,Y
1512653635.6,286046998.1,P
1512653655.4,286046999.9,N
1512653675.2,286046999.7,N
1512653695.1,286047002.6,N
1512653696.0,286047002.6,N
1512653715.8,286046999.7,N
1512653735.6,286047002.1,N
1512653755.5,286047004.0,N
1512653775.3,286047003.1,N
1512653795.2,286047004.4,N
1512653815.9,286047003.4,N
1512653835.7,286047001.8,N
1512653855.6,286047002.3,N
1512653875.4,286047002.1,N
1512653895.2,286047003.5,N
1512653915.1,286047000.1,N
1512653916.0,286047000.1,N
1512653935.8,286047000.5,N
1512653955.7,286046999.9,N
1512653975.5,286047002.8,N
1512653995.3,286046998.6,N
1512654015.2,286047000.9,N
1512654035.0,286047000.6,N
1512654035.9,286047000.6,N
1512654055.8,286046998.2,N
1512654075.6,286046999.4,N
1512654095.4,286047001.1,N
1512654115.3,286047000.0,N
1512654135.1,286047001.8,N
1512654155.8,286047000.6,N
1512654175.7,286046998.9,N
1512654195.5,286046999.3,N
1512654215.4,286046997.3,N
1512654235.2,286046996.6,N
1512654255.0,286046996.6,N
1512654255.9,286046996.6,N
1512654275.8,286046998.7,N
1512654295.6,286047002.4,N
1512654315.5,286046999.8,N
1512654335.3,286047000.6,N
1512654355.1,286047001.6,N
1512654375.9,286047000.7,N
1512654395.7,286047002.6,N
1512654415.5,286047002.5,N
1512654435.4,286047002.8,N
1512654455.2,286047002.8,N
1512654475.1,286047004.7,N
1512654476.0,286047004.7,N
1512654495.8,286047003.5,N
1512654515.6,286047007.0,Y
1512654535.5,286047006.0,P
1512654555.3,286047004.8,N
1512654575.2,286047005.9,N
1512654595.9,286047001.4,N
1512654615.7,286046998.7,N
1512654635.6,286047002.4,N
1512654655.4,286046999.7,N
1512654675.2,286047001.6,N
1512654695.1,286047003.9,N
1512654696.0,286047003.9,N
1512654715.8,286047002.6,N
1512654735.7,286047002.0,N
1512654755.5,286047001.8,N
1512654775.3,286047002.2,N
1512654795.2,286047000.7,N
1512654815.0,286046996.6,N
1512654815.9,286046996.6,N
1512654835.8,286046998.4,N
1512654855.6,286047000.2,N
1512654875.4,286047002.2,N
1512654895.3,286046999.8,N
1512654915.1,286047000.0,N
1512654935.8,286047002.4,N
1512654955.7,286047003.9,N
1512654975.5,286047005.5,N
1512654995.4,286047006.0,N
1512655015.2,286047003.3,N
1512655035.0,286047005.3,N
1512655035.9,286047005.3,N
1512655055.8,286047007.2,N
1512655075.6,286047008.3,Y
1512655095.5,286047004.3,P
1512655115.3,286047002.7,N
1512655135.1,286047000.7,N
1512655155.9,286046999.1,N
1512655175.7,286046996.8,N
1512655195.5,286046996.7,N
